{"data":{"norad_id":68604,"intl_designator":"2026-073C","name":"STARLINK-37130","alt_names":[],"object_type":"PAYLOAD","status":"ACTIVE","operator":null,"country":"US","launch_date":"2026-04-07","launch_site_code":"AFWTR","launch_vehicle":null,"mission":null,"orbit_class":"UNKNOWN","rcs_meters":null,"size_class":null,"mass_kg":null,"dimensions":null,"purposes":["comms"],"wikipedia_slug":null,"has_3d_model":false,"image_url":null,"decayed_at":null,"tle_current":{"epoch":"2026-05-25T04:00:03.998880Z","epoch_age_seconds":67441,"freshness":"FRESH","line1":"1 68604U 26073C   26145.16671295 -.02264154  00000+0 -42094-1 0  9992","line2":"2 68604  97.2854 344.5938 0001976  77.1264  74.5796 15.52452706  5940","mean_motion":15.52452706,"eccentricity":0.0001976,"inclination_deg":97.2854,"raan_deg":344.5938,"arg_perigee_deg":77.1264,"mean_anomaly_deg":74.5796,"bstar":-0.042094,"rev_number":594,"period_min":92.756448839608,"perigee_km":408.22617117837,"apogee_km":410.90867196577,"semimajor_km":6787.7044215721,"source":"CELESTRAK","updated_at":"2026-05-25T13:38:21.966395Z"}}}